Location: Cactus School
(34.5700°N, 118.0931°W)
Time: 08:34:28
(UTC-07:00)

S-56A Canister/Altair - Pass Details

Date: 20 April 2024
Orbit: 638 x 2488 km, 38.9° (Epoch: 29 May)

Event Time Altitude Azimuth Distance (km) Brightness Sun altitude
Rises 21:48:07 0° 289° (WNW) 3,916 12.3 -26.4°
Reaches altitude 10° 21:50:27 10° 289° (WNW) 3,154 11.5 -26.7°
Maximum altitude 21:58:33 84° 203° (SSW) 1,620 8.9 -28.0°
Enters shadow 22:02:13 49° 120° (ESE) 2,199 9.3 -28.6°
Drops below altitude 10° 22:10:57 10° 116° (ESE) 4,658 - -29.9°
Sets 22:15:07 0° 116° (ESE) 5,861 - -30.5°
